Погода в Симферополе

Хотите узнать прогноз погоды в Симферополе? Тогда Вам сюда: Погода в Симферополе

Поиск расширенной информации на нашем сайте:

Полезная информация:

Новости сайта



02.01.2020
Опубликован Долгосрочный прогноз погоды по городам России и ближнего зарубежья на январь 2020 года.
Карты: Прогноз на январь и февраль 2020 года, Сравнение прогнозируемой аномалии приземной температуры воздуха на январь 2020 года по разным моделям.




Погода в Симферополе - сегодня

Время (UTC), дата Ветер
(°,м/с) 
Видим.   Явления Облачность Т
(°С)
Тd
(°С)
f(%) Тe
(°С)
Pmin
(гПа)
dP
(гПа)
Po
(мм)
O2
(г/м3)
Тmin Tmax R s Состояние
почвы
06 05.04.20 050 (СВ) 10 км    10/0 средняя, верхняя 
[Ac trans|Ci sp]
+8.9 +0.8 57 +7  1025.8  1.3  753  294  +4.8        сухая 
09 05.04.20 050 (СВ) 10-13{16}  10 км    10/0 верхняя 
[Ci fib]
+15.1 -2.8 29 +14  1025.3  753  288           
12 05.04.20 050 (СВ) 11-15{15}  10 км    10/0 верхняя 
[Ci]
+14.9 -4.4 26 +13  1024.3  -1  752  288           
15 05.04.20 050 (СВ) 11-14{17}  10 км    10/0 верхняя 
[Ci]
+12.5 -9.2 21 +10  1024.4  -0.1  752  291           
18 05.04.20 050 (СВ) 4{14}  10 км    4/0 верхняя 
[Ci fib]
+6.5 -7.9 35 +5  1026.3  1.4  753  297    +16.3       
21 05.04.20 060 (СВ) 7{11}  10 км    ясно 
+5 -4.8 49 +2  1027.4  754  299           
00 06.04.20 050 (СВ) 7-10{11}  10 км    ясно 
+4.8 -4 53 +2  1028.2  0.7  754  299           
03 06.04.20 050 (СВ) 8-10  10 км    ясно 
+2.2 -4.5 61 -2  1028.9  1.5  755  302  +1.6         
06 06.04.20 060 (СВ) 13-18  10 км    ясно 
+8.4 -6.9 33 +5  1031.6  2.1  757  297  +1.6        сухая 
09 06.04.20 060 (СВ) 13-17{20}  10 км    ясно 
+11.3 -10.2 21 +9  1032.5  1.1  758  294           
12 06.04.20 070 (В) 14-17{19}  10 км    ясно 
+11.2 -13 17 +8  1032.9  0.4  758  295           
15 06.04.20 060 (СВ) 10-13{18}  10 км    ясно 
+9.9 -10.3 23 +7  1033.5  0.5  758  296           
18 06.04.20 060 (СВ) 6{13}  10 км    ясно 
+5.5 -9.9 32 +3  1034.2  0.4  759  301    +12.3       
21 06.04.20 060 (СВ) 10 км    ясно 
+4.7 -9.5 35 +2  1033.5  -0.8  758  301           
00 07.04.20 050 (СВ) 10 км    ясно 
+1.8 -8 48 -1  1032.8  -0.9  757  304           
03 07.04.20 070 (В) 10 км    ясно 
+0.7 -5.7 62 -2  1032.9  757  305  +0.5         
06 07.04.20 050 (СВ) 7-10  10 км    ясно 
+9.3 -1.4 47 +7  1032.9  0.7  758  296  +0.5        сухая 
09 07.04.20 060 (СВ) 11-16{16}  10 км    ясно 
+14.2 -7.8 21 +13  1032  -0.5  758  291           
12 07.04.20 070 (В) 10-14{17}  10 км    ясно 
+14.6 -6.9 22 +13  1031.8  -0.2  757  290           
15 07.04.20 060 (СВ) 8-12{15}  10 км    ясно 
+13 -5.6 27 +12  1031.4  -0.5  757  292           
18 07.04.20 070 (В) 5{12}  10 км    ясно 
+6.6 -7.8 35 +5  1032.5  0.6  758  299    +15.8       
21 07.04.20 070 (В) 10 км    ясно 
+4.3 -3.7 56 +2  1032.5  -0.2  757  301           
00 08.04.20 070 (В) 10 км    ясно 
+2.3 -5.8 55 1031.4  -1.2  756  303           
03 08.04.20 070 (В) 8-10  10 км    ясно 
+2.9 -10 38 -1  1030.5  -0.9  756  302  +1.4         
06 08.04.20 070 (В) 12-15{16}  10 км    ясно 
+7.7 -11.1 25 +4  1029.7  -0.4  755  297  +1.4        сухая 
Время (UTC), дата Ветер
(°,м/с) 
Видим.   Явления Облачность Т
(°С)
Тd
(°С)
f(%) Тe
(°С)
Pmin
(гПа)
dP
(гПа)
Po
(мм)
O2
(г/м3)
Тmin Tmax R s Состояние
почвы

Для получения пояснительной информации подведите курсор к названию столбца.

ПОГОДА в Симферополе - архив

Всё, что Вы хотите узнать о погоде в Симферополе - удобно и подробно!

Выберите нужную дату (начиная с 1 января 2019* года) и нажмите кнопку "Найти".
Будут отображены архивные сводки погоды по пункту Симферополь, начиная с указанной даты.


Отображать данные в формате CSV (для использования в таблицах Excel)


Внимание! Наш архив погоды предназначен исключительно для личного некоммерческого использования в познавательных целях. Если Вам необходимы официальные справки о состоянии погоды (для производственных, юридических, коммерческих и т.п. целей), обращайтесь в органы Росгидромета.

*Примечание: данная дата относится к архиву по метеостанциям СССР (Россия, СНГ, Балтия).
Архив по метеостанциям Зарубежной Европы и Азии (кроме Китая) хранится 10 дней, по другим регионам земного шара (Китай, Африка, Америка, Австралия, Океания) - 1 день.

Симферополь - район местоположения метеостанции


Название, широта, долгота, высота метеостанции:
Симферополь 44.7°ш. 34.1°д. 181 м над ур. моря [Российская Федерация]

Дополнительная информация

В oтличие oт бoльшинства пoгoдных сайтoв мы публикуем пoдрoбную метеoинфoрмацию в детальнoм прoфессиoнальнoм фoрмате.

Характеристики температуры и влажнoсти вoздуха измеряются на высoте 2 м в тени вдали oт зданий и деревьев.
Скoрoсть ветра измеряется на высoте 10 м (на урoвне рoста челoвека скoрoсть ветра ниже в 1.5-2 раза). Если метеoстанция нахoдится в гoрoде или в лесу, тo скoрoсть ветра занижена на 2-4 м/с пo сравнению с oткрытым местoм. Скoрoсть ветра над акватoриями крупных рек и oзёр, а также на вершинах хoлмoв на 2-5 м/с выше, чем в oбычных услoвиях.
Атмoсфернoе давление в разных тoчках местнoсти мoжет значительнo oтличаться oт давления на метеoстанции, в зависимoсти oт услoвий рельефа (при пoдъёме на 10 м давление пoнижается примернo на 1 мм рт.ст.).